Location: Devore Heights
(34.2372°N, 117.4156°W)
Time: 00:52:25
(UTC+00:00)

Vanguard 2 Rocket - Pass Details

Date: 11 September 2024
Orbit: 553 x 3298 km, 32.9° (Epoch: 09 October)

Event Time Altitude Azimuth Distance (km) Brightness Sun altitude
Exits shadow 08:51:32 37° 107° (ESE) 3,320 9.6 -48.5°
Drops below altitude 10° 09:02:25 10° 79° (E) 5,805 11.3 -47.5°
Sets 09:07:50 0° 74° (ENE) 7,078 11.9 -46.9°
